Time,TemperatureF,DewpointF,PressureIn,WindDirection,WindDirectionDegrees,WindSpeedMPH,WindSpeedGustMPH,Humidity,HourlyPrecipIn,Conditions,Clouds,dailyrainin,SoftwareType,DateUTC
2013-02-12 00:00:00,42.3,40.4,29.68,NW,314,1.0,2.0,93,0.00,,,0.21,Wunderground v.1.15,2013-02-12 05:00:00,
2013-02-12 00:01:00,42.2,40.3,29.68,NW,314,0.0,1.0,93,0.00,,,0.00,Wunderground v.1.15,2013-02-12 05:01:00,
2013-02-12 00:03:00,42.2,40.3,29.68,NW,314,1.0,1.0,93,0.00,,,0.00,Wunderground v.1.15,2013-02-12 05:03:00,
2013-02-12 00:08:00,42.1,40.2,29.68,NW,315,2.0,2.0,93,0.00,,,0.00,Wunderground v.1.15,2013-02-12 05:08:00,
2013-02-12 00:14:00,41.9,40.0,29.68,NW,320,3.0,4.0,93,0.00,,,0.00,Wunderground v.1.15,2013-02-12 05:14:00,
2013-02-12 00:20:00,41.9,40.0,29.68,NW,305,0.0,1.0,93,0.00,,,0.00,Wunderground v.1.15,2013-02-12 05:20:00,
2013-02-12 00:25:00,41.8,39.9,29.68,WNW,300,0.0,3.0,93,0.00,,,0.00,Wunderground v.1.15,2013-02-12 05:25:00,
2013-02-12 00:31:00,41.5,39.6,29.68,West,269,0.0,0.0,93,0.00,,,0.00,Wunderground v.1.15,2013-02-12 05:31:00,
2013-02-12 00:36:00,41.2,39.1,29.68,West,269,0.0,0.0,92,0.00,,,0.00,Wunderground v.1.15,2013-02-12 05:36:00,
2013-02-12 00:42:00,40.9,38.8,29.68,West,269,1.0,1.0,92,0.00,,,0.00,Wunderground v.1.15,2013-02-12 05:42:00,
2013-02-12 00:48:00,40.6,38.5,29.69,WNW,285,0.0,2.0,92,0.00,,,0.00,Wunderground v.1.15,2013-02-12 05:48:00,
2013-02-12 00:53:00,40.5,38.4,29.69,SSW,207,1.0,2.0,92,0.00,,,0.00,Wunderground v.1.15,2013-02-12 05:53:00,
2013-02-12 00:59:00,40.3,38.2,29.68,WNW,284,1.0,2.0,92,0.00,,,0.00,Wunderground v.1.15,2013-02-12 05:59:00,
2013-02-12 01:05:00,40.3,38.2,29.68,NNE,16,1.0,6.0,92,0.00,,,0.00,Wunderground v.1.15,2013-02-12 06:05:00,
2013-02-12 01:11:00,40.2,38.1,29.68,WNW,296,1.0,2.0,92,0.00,,,0.00,Wunderground v.1.15,2013-02-12 06:11:00,
2013-02-12 01:17:00,40.1,38.0,29.68,NW,321,1.0,2.0,92,0.00,,,0.00,Wunderground v.1.15,2013-02-12 06:17:00,
2013-02-12 01:22:00,39.9,37.5,29.68,NW,304,0.0,1.0,91,0.00,,,0.00,Wunderground v.1.15,2013-02-12 06:22:00,
2013-02-12 01:28:00,39.8,37.4,29.68,NNW,339,0.0,2.0,91,0.00,,,0.00,Wunderground v.1.15,2013-02-12 06:28:00,
2013-02-12 01:34:00,39.6,37.2,29.68,WNW,285,0.0,2.0,91,0.00,,,0.00,Wunderground v.1.15,2013-02-12 06:34:00,
2013-02-12 01:40:00,39.5,37.1,29.68,WNW,293,0.0,1.0,91,0.00,,,0.00,Wunderground v.1.15,2013-02-12 06:40:00,
2013-02-12 01:45:00,39.3,36.6,29.68,WNW,296,0.0,1.0,90,0.00,,,0.00,Wunderground v.1.15,2013-02-12 06:45:00,
2013-02-12 01:51:00,39.1,36.4,29.68,WNW,303,0.0,4.0,90,0.00,,,0.00,Wunderground v.1.15,2013-02-12 06:51:00,
2013-02-12 01:57:00,39.2,36.2,29.68,NW,306,0.0,7.0,89,0.00,,,0.00,Wunderground v.1.15,2013-02-12 06:57:00,
2013-02-12 02:02:00,39.1,36.1,29.70,NNW,327,1.0,4.0,89,0.00,,,0.00,Wunderground v.1.15,2013-02-12 07:02:00,
2013-02-12 02:07:00,39.2,35.9,29.70,North,350,1.0,7.0,88,0.00,,,0.00,Wunderground v.1.15,2013-02-12 07:07:00,
2013-02-12 02:12:00,39.2,35.7,29.70,NNW,331,0.0,4.0,87,0.00,,,0.00,Wunderground v.1.15,2013-02-12 07:12:00,
2013-02-12 02:17:00,39.2,35.4,29.70,NNW,330,0.0,4.0,86,0.00,,,0.00,Wunderground v.1.15,2013-02-12 07:17:00,
2013-02-12 02:22:00,39.2,35.1,29.70,WNW,302,0.0,4.0,85,0.00,,,0.00,Wunderground v.1.15,2013-02-12 07:22:00,
2013-02-12 02:27:00,39.1,34.7,29.70,NW,325,0.0,4.0,84,0.00,,,0.00,Wunderground v.1.15,2013-02-12 07:27:00,
2013-02-12 02:32:00,38.9,34.2,29.70,WNW,300,1.0,3.0,83,0.00,,,0.00,Wunderground v.1.15,2013-02-12 07:32:00,
2013-02-12 02:37:00,38.9,33.9,29.70,NW,309,0.0,5.0,82,0.00,,,0.00,Wunderground v.1.15,2013-02-12 07:37:00,
2013-02-12 02:42:00,38.9,33.6,29.70,NW,307,3.0,6.0,81,0.00,,,0.00,Wunderground v.1.15,2013-02-12 07:42:00,
2013-02-12 02:47:00,38.9,33.3,29.69,NW,304,2.0,6.0,80,0.00,,,0.00,Wunderground v.1.15,2013-02-12 07:47:00,
2013-02-12 02:52:00,38.9,32.6,29.69,NNW,345,0.0,6.0,78,0.00,,,0.00,Wunderground v.1.15,2013-02-12 07:52:00,
2013-02-12 02:57:00,39.1,32.2,29.69,WNW,292,2.0,6.0,76,0.00,,,0.00,Wunderground v.1.15,2013-02-12 07:57:00,
2013-02-12 03:03:00,39.2,31.9,29.70,NNW,331,0.0,2.0,75,0.00,,,0.00,Wunderground v.1.15,2013-02-12 08:03:00,
2013-02-12 03:08:00,39.2,31.3,29.70,West,259,2.0,5.0,73,0.00,,,0.00,Wunderground v.1.15,2013-02-12 08:08:00,
2013-02-12 03:13:00,39.2,30.9,29.70,West,265,2.0,2.0,72,0.00,,,0.00,Wunderground v.1.15,2013-02-12 08:13:00,
2013-02-12 03:18:00,39.3,30.7,29.71,WNW,291,0.0,5.0,71,0.00,,,0.00,Wunderground v.1.15,2013-02-12 08:18:00,
2013-02-12 03:23:00,39.3,30.0,29.71,WNW,296,0.0,5.0,69,0.00,,,0.00,Wunderground v.1.15,2013-02-12 08:23:00,
2013-02-12 03:28:00,39.2,29.5,29.71,WSW,240,2.0,5.0,68,0.00,,,0.00,Wunderground v.1.15,2013-02-12 08:28:00,
2013-02-12 03:33:00,39.3,29.6,29.71,WSW,255,0.0,5.0,68,0.00,,,0.00,Wunderground v.1.15,2013-02-12 08:33:00,
2013-02-12 03:38:00,39.2,29.2,29.71,West,269,1.0,5.0,67,0.00,,,0.00,Wunderground v.1.15,2013-02-12 08:38:00,
2013-02-12 03:43:00,39.2,28.8,29.71,NW,315,0.0,11.0,66,0.00,,,0.00,Wunderground v.1.15,2013-02-12 08:43:00,
2013-02-12 03:48:00,39.3,28.9,29.72,NNW,340,4.0,11.0,66,0.00,,,0.00,Wunderground v.1.15,2013-02-12 08:48:00,
2013-02-12 03:53:00,39.5,28.7,29.72,WNW,287,3.0,5.0,65,0.00,,,0.00,Wunderground v.1.15,2013-02-12 08:53:00,
2013-02-12 03:58:00,39.6,28.8,29.72,WNW,286,1.0,5.0,65,0.00,,,0.00,Wunderground v.1.15,2013-02-12 08:58:00,
2013-02-12 04:03:00,39.6,28.4,29.73,SSW,202,1.0,6.0,64,0.00,,,0.00,Wunderground v.1.15,2013-02-12 09:03:00,
2013-02-12 04:08:00,39.6,28.4,29.73,WNW,294,1.0,6.0,64,0.00,,,0.00,Wunderground v.1.15,2013-02-12 09:08:00,
2013-02-12 04:13:00,39.6,28.4,29.73,WNW,286,0.0,4.0,64,0.00,,,0.00,Wunderground v.1.15,2013-02-12 09:13:00,
2013-02-12 04:18:00,39.5,28.3,29.73,WNW,289,1.0,4.0,64,0.00,,,0.00,Wunderground v.1.15,2013-02-12 09:18:00,
2013-02-12 04:23:00,39.5,28.3,29.73,NNW,337,0.0,2.0,64,0.00,,,0.00,Wunderground v.1.15,2013-02-12 09:23:00,
2013-02-12 04:28:00,39.5,28.3,29.73,NW,325,5.0,6.0,64,0.00,,,0.00,Wunderground v.1.15,2013-02-12 09:28:00,
2013-02-12 04:34:00,39.5,27.9,29.73,West,271,3.0,6.0,63,0.00,,,0.00,Wunderground v.1.15,2013-02-12 09:34:00,
2013-02-12 04:39:00,39.5,27.5,29.73,WNW,287,2.0,10.0,62,0.00,,,0.00,Wunderground v.1.15,2013-02-12 09:39:00,
2013-02-12 04:44:00,39.5,27.5,29.73,West,260,1.0,11.0,62,0.00,,,0.00,Wunderground v.1.15,2013-02-12 09:44:00,
2013-02-12 04:49:00,39.6,27.2,29.73,NW,311,6.0,11.0,61,0.00,,,0.00,Wunderground v.1.15,2013-02-12 09:49:00,
2013-02-12 04:54:00,39.6,27.2,29.73,WNW,294,2.0,8.0,61,0.00,,,0.00,Wunderground v.1.15,2013-02-12 09:54:00,
2013-02-12 04:59:00,39.6,26.8,29.73,NW,323,9.0,12.0,60,0.00,,,0.00,Wunderground v.1.15,2013-02-12 09:59:00,
2013-02-12 05:04:00,39.8,27.0,29.73,NNW,348,1.0,10.0,60,0.00,,,0.00,Wunderground v.1.15,2013-02-12 10:04:00,
2013-02-12 05:09:00,39.8,26.6,29.73,NW,306,4.0,13.0,59,0.00,,,0.00,Wunderground v.1.15,2013-02-12 10:09:00,
2013-02-12 05:14:00,39.9,26.7,29.74,NW,311,12.0,13.0,59,0.00,,,0.00,Wunderground v.1.15,2013-02-12 10:14:00,
2013-02-12 05:19:00,40.1,26.1,29.74,NW,315,2.0,16.0,57,0.00,,,0.00,Wunderground v.1.15,2013-02-12 10:19:00,
2013-02-12 05:24:00,40.1,26.1,29.74,North,360,5.0,21.0,57,0.00,,,0.00,Wunderground v.1.15,2013-02-12 10:24:00,
2013-02-12 05:29:00,40.2,25.7,29.75,NNW,328,4.0,21.0,56,0.00,,,0.00,Wunderground v.1.15,2013-02-12 10:29:00,
2013-02-12 05:34:00,40.2,25.3,29.75,NW,305,4.0,14.0,55,0.00,,,0.00,Wunderground v.1.15,2013-02-12 10:34:00,
2013-02-12 05:39:00,40.2,25.3,29.75,West,281,5.0,16.0,55,0.00,,,0.00,Wunderground v.1.15,2013-02-12 10:39:00,
2013-02-12 05:44:00,40.3,25.0,29.76,NNW,346,5.0,8.0,54,0.00,,,0.00,Wunderground v.1.15,2013-02-12 10:44:00,
2013-02-12 05:49:00,40.5,24.7,29.76,WNW,296,1.0,15.0,53,0.00,,,0.00,Wunderground v.1.15,2013-02-12 10:49:00,
2013-02-12 05:54:00,40.5,24.7,29.76,NW,315,3.0,9.0,53,0.00,,,0.00,Wunderground v.1.15,2013-02-12 10:54:00,
2013-02-12 05:59:00,40.6,24.8,29.77,NW,313,5.0,12.0,53,0.00,,,0.00,Wunderground v.1.15,2013-02-12 10:59:00,
2013-02-12 06:04:00,40.6,24.3,29.77,WNW,293,5.0,12.0,52,0.00,,,0.00,Wunderground v.1.15,2013-02-12 11:04:00,
2013-02-12 06:09:00,40.6,24.3,29.77,WNW,299,5.0,12.0,52,0.00,,,0.00,Wunderground v.1.15,2013-02-12 11:09:00,
2013-02-12 06:14:00,40.5,24.7,29.77,SW,214,7.0,8.0,53,0.00,,,0.00,Wunderground v.1.15,2013-02-12 11:14:00,
2013-02-12 06:19:00,40.3,24.5,29.77,NW,325,1.0,9.0,53,0.00,,,0.00,Wunderground v.1.15,2013-02-12 11:19:00,
2013-02-12 06:24:00,40.3,24.5,29.77,NW,316,4.0,12.0,53,0.00,,,0.00,Wunderground v.1.15,2013-02-12 11:24:00,
2013-02-12 06:29:00,40.3,24.5,29.77,NW,306,5.0,12.0,53,0.00,,,0.00,Wunderground v.1.15,2013-02-12 11:29:00,
2013-02-12 06:34:00,40.3,24.5,29.77,North,360,6.0,10.0,53,0.00,,,0.00,Wunderground v.1.15,2013-02-12 11:34:00,
2013-02-12 06:39:00,40.3,24.5,29.77,NW,314,4.0,10.0,53,0.00,,,0.00,Wunderground v.1.15,2013-02-12 11:39:00,
2013-02-12 06:45:00,40.3,24.5,29.78,NW,325,3.0,9.0,53,0.00,,,0.00,Wunderground v.1.15,2013-02-12 11:45:00,
2013-02-12 06:50:00,40.3,24.5,29.78,WNW,300,3.0,9.0,53,0.00,,,0.00,Wunderground v.1.15,2013-02-12 11:50:00,
2013-02-12 06:55:00,40.3,24.5,29.78,NW,311,1.0,10.0,53,0.00,,,0.00,Wunderground v.1.15,2013-02-12 11:55:00,
2013-02-12 07:00:00,40.3,24.5,29.78,NW,309,4.0,10.0,53,0.00,,,0.00,Wunderground v.1.15,2013-02-12 12:00:00,
2013-02-12 07:05:00,40.3,24.5,29.78,WNW,294,2.0,11.0,53,0.00,,,0.00,Wunderground v.1.15,2013-02-12 12:05:00,
2013-02-12 07:10:00,40.3,24.5,29.78,WNW,300,1.0,3.0,53,0.00,,,0.00,Wunderground v.1.15,2013-02-12 12:10:00,
2013-02-12 07:15:00,40.3,24.5,29.79,NW,309,2.0,7.0,53,0.00,,,0.00,Wunderground v.1.15,2013-02-12 12:15:00,
2013-02-12 07:20:00,40.2,24.4,29.79,WNW,298,1.0,2.0,53,0.00,,,0.00,Wunderground v.1.15,2013-02-12 12:20:00,
2013-02-12 07:25:00,40.2,24.9,29.79,WNW,290,1.0,11.0,54,0.00,,,0.00,Wunderground v.1.15,2013-02-12 12:25:00,
2013-02-12 07:30:00,40.2,24.9,29.80,WNW,303,4.0,5.0,54,0.00,,,0.00,Wunderground v.1.15,2013-02-12 12:30:00,
2013-02-12 07:35:00,40.2,24.9,29.80,West,272,3.0,5.0,54,0.00,,,0.00,Wunderground v.1.15,2013-02-12 12:35:00,
2013-02-12 07:40:00,40.1,24.8,29.80,NW,306,2.0,2.0,54,0.00,,,0.00,Wunderground v.1.15,2013-02-12 12:40:00,
2013-02-12 07:45:00,40.1,24.8,29.81,WSW,254,1.0,7.0,54,0.00,,,0.00,Wunderground v.1.15,2013-02-12 12:45:00,
2013-02-12 07:50:00,39.9,24.6,29.81,WNW,302,4.0,6.0,54,0.00,,,0.00,Wunderground v.1.15,2013-02-12 12:50:00,
2013-02-12 07:55:00,39.8,24.9,29.81,WNW,302,1.0,6.0,55,0.00,,,0.00,Wunderground v.1.15,2013-02-12 12:55:00,
2013-02-12 08:00:00,39.8,24.9,29.82,West,279,1.0,2.0,55,0.00,,,0.00,Wunderground v.1.15,2013-02-12 13:00:00,
2013-02-12 08:05:00,39.9,25.0,29.82,WNW,288,1.0,4.0,55,0.00,,,0.00,Wunderground v.1.15,2013-02-12 13:05:00,
2013-02-12 08:10:00,40.1,25.2,29.82,North,351,3.0,7.0,55,0.00,,,0.00,Wunderground v.1.15,2013-02-12 13:10:00,
2013-02-12 08:15:00,40.3,25.4,29.82,WNW,300,2.0,7.0,55,0.00,,,0.00,Wunderground v.1.15,2013-02-12 13:15:00,
2013-02-12 08:20:00,40.6,25.7,29.82,West,278,5.0,5.0,55,0.00,,,0.00,Wunderground v.1.15,2013-02-12 13:20:00,
2013-02-12 08:25:00,40.9,25.5,29.82,WNW,299,0.0,7.0,54,0.00,,,0.00,Wunderground v.1.15,2013-02-12 13:25:00,
2013-02-12 08:30:00,41.2,25.8,29.82,West,277,4.0,6.0,54,0.00,,,0.00,Wunderground v.1.15,2013-02-12 13:30:00,
2013-02-12 08:35:00,41.3,25.9,29.82,WNW,301,5.0,7.0,54,0.00,,,0.00,Wunderground v.1.15,2013-02-12 13:35:00,
2013-02-12 08:40:00,41.8,25.9,29.82,WSW,246,1.0,6.0,53,0.00,,,0.00,Wunderground v.1.15,2013-02-12 13:40:00,
2013-02-12 08:45:00,42.2,25.8,29.82,WNW,287,4.0,9.0,52,0.00,,,0.00,Wunderground v.1.15,2013-02-12 13:45:00,
2013-02-12 08:50:00,42.2,25.8,29.82,NNW,341,4.0,5.0,52,0.00,,,0.00,Wunderground v.1.15,2013-02-12 13:50:00,
2013-02-12 08:55:00,42.2,25.3,29.82,WNW,292,1.0,11.0,51,0.00,,,0.00,Wunderground v.1.15,2013-02-12 13:55:00,
2013-02-12 09:01:00,42.2,25.3,29.83,NW,305,1.0,6.0,51,0.00,,,0.00,Wunderground v.1.15,2013-02-12 14:01:00,
2013-02-12 09:06:00,42.2,25.3,29.83,WNW,288,2.0,6.0,51,0.00,,,0.00,Wunderground v.1.15,2013-02-12 14:06:00,
2013-02-12 09:11:00,42.3,25.4,29.83,NW,322,6.0,7.0,51,0.00,,,0.00,Wunderground v.1.15,2013-02-12 14:11:00,
2013-02-12 09:16:00,42.5,25.6,29.83,NW,326,1.0,7.0,51,0.00,,,0.00,Wunderground v.1.15,2013-02-12 14:16:00,
2013-02-12 09:21:00,42.6,25.7,29.83,NNW,342,2.0,6.0,51,0.00,,,0.00,Wunderground v.1.15,2013-02-12 14:21:00,
2013-02-12 09:26:00,42.8,25.4,29.83,NNW,335,6.0,11.0,50,0.00,,,0.00,Wunderground v.1.15,2013-02-12 14:26:00,
2013-02-12 09:31:00,42.8,24.9,29.83,WNW,299,0.0,6.0,49,0.00,,,0.00,Wunderground v.1.15,2013-02-12 14:31:00,
2013-02-12 09:36:00,43.1,25.2,29.83,WNW,299,5.0,11.0,49,0.00,,,0.00,Wunderground v.1.15,2013-02-12 14:36:00,
2013-02-12 09:41:00,43.3,25.4,29.83,North,349,1.0,5.0,49,0.00,,,0.00,Wunderground v.1.15,2013-02-12 14:41:00,
2013-02-12 09:46:00,43.6,24.7,29.83,NW,316,4.0,13.0,47,0.00,,,0.00,Wunderground v.1.15,2013-02-12 14:46:00,
2013-02-12 09:51:00,43.8,24.9,29.83,WNW,289,2.0,8.0,47,0.00,,,0.00,Wunderground v.1.15,2013-02-12 14:51:00,
2013-02-12 09:56:00,43.9,24.9,29.83,North,350,1.0,13.0,47,0.00,,,0.00,Wunderground v.1.15,2013-02-12 14:56:00,
2013-02-12 10:01:00,43.9,24.4,29.83,NNW,335,2.0,6.0,46,0.00,,,0.00,Wunderground v.1.15,2013-02-12 15:01:00,
2013-02-12 10:06:00,44.2,24.7,29.83,NNW,333,8.0,18.0,46,0.00,,,0.00,Wunderground v.1.15,2013-02-12 15:06:00,
2013-02-12 10:11:00,43.9,23.9,29.83,WNW,300,6.0,16.0,45,0.00,,,0.00,Wunderground v.1.15,2013-02-12 15:11:00,
2013-02-12 10:16:00,44.1,24.1,29.83,WNW,303,5.0,16.0,45,0.00,,,0.00,Wunderground v.1.15,2013-02-12 15:16:00,
2013-02-12 10:21:00,44.1,24.1,29.83,NW,318,8.0,9.0,45,0.00,,,0.00,Wunderground v.1.15,2013-02-12 15:21:00,
2013-02-12 10:26:00,44.2,24.2,29.83,NW,322,11.0,16.0,45,0.00,,,0.00,Wunderground v.1.15,2013-02-12 15:26:00,
2013-02-12 10:31:00,44.2,24.2,29.83,WNW,290,9.0,12.0,45,0.00,,,0.00,Wunderground v.1.15,2013-02-12 15:31:00,
2013-02-12 10:36:00,44.2,24.2,29.83,NW,322,7.0,13.0,45,0.00,,,0.00,Wunderground v.1.15,2013-02-12 15:36:00,
2013-02-12 10:41:00,44.5,24.5,29.83,NW,315,7.0,21.0,45,0.00,,,0.00,Wunderground v.1.15,2013-02-12 15:41:00,
2013-02-12 10:46:00,44.5,25.5,29.84,NW,313,4.0,21.0,47,0.00,,,0.00,Wunderground v.1.15,2013-02-12 15:46:00,
2013-02-12 10:51:00,44.8,25.3,29.84,WNW,301,4.0,9.0,46,0.00,,,0.00,Wunderground v.1.15,2013-02-12 15:51:00,
2013-02-12 10:56:00,45.1,25.0,29.84,NNW,327,8.0,18.0,45,0.00,,,0.00,Wunderground v.1.15,2013-02-12 15:56:00,
2013-02-12 11:01:00,44.9,24.8,29.85,North,360,7.0,11.0,45,0.00,,,0.00,Wunderground v.1.15,2013-02-12 16:01:00,
2013-02-12 11:06:00,45.1,25.0,29.85,West,281,8.0,15.0,45,0.00,,,0.00,Wunderground v.1.15,2013-02-12 16:06:00,
2013-02-12 11:11:00,44.9,24.8,29.85,NNW,342,7.0,16.0,45,0.00,,,0.00,Wunderground v.1.15,2013-02-12 16:11:00,
2013-02-12 11:16:00,44.9,24.8,29.85,North,355,2.0,16.0,45,0.00,,,0.00,Wunderground v.1.15,2013-02-12 16:16:00,
2013-02-12 11:21:00,44.9,24.8,29.85,WNW,300,2.0,11.0,45,0.00,,,0.00,Wunderground v.1.15,2013-02-12 16:21:00,
2013-02-12 11:26:00,44.9,24.8,29.85,NNW,327,5.0,19.0,45,0.00,,,0.00,Wunderground v.1.15,2013-02-12 16:26:00,
2013-02-12 11:31:00,45.4,25.3,29.85,NNW,333,1.0,13.0,45,0.00,,,0.00,Wunderground v.1.15,2013-02-12 16:31:00,
2013-02-12 11:36:00,45.8,25.6,29.85,West,276,6.0,13.0,45,0.00,,,0.00,Wunderground v.1.15,2013-02-12 16:36:00,
2013-02-12 11:41:00,46.1,25.9,29.85,NW,312,3.0,11.0,45,0.00,,,0.00,Wunderground v.1.15,2013-02-12 16:41:00,
2013-02-12 11:46:00,46.5,25.7,29.85,NW,313,7.0,11.0,44,0.00,,,0.00,Wunderground v.1.15,2013-02-12 16:46:00,
2013-02-12 11:51:00,46.4,25.1,29.85,NNE,30,8.0,9.0,43,0.00,,,0.00,Wunderground v.1.15,2013-02-12 16:51:00,
2013-02-12 11:57:00,45.5,24.3,29.85,NNW,344,7.0,16.0,43,0.00,,,0.00,Wunderground v.1.15,2013-02-12 16:57:00,
2013-02-12 12:02:00,45.2,24.6,29.85,NW,322,7.0,12.0,44,0.00,,,0.00,Wunderground v.1.15,2013-02-12 17:02:00,
2013-02-12 12:07:00,45.5,24.8,29.85,WNW,294,3.0,13.0,44,0.00,,,0.00,Wunderground v.1.15,2013-02-12 17:07:00,
2013-02-12 12:12:00,45.8,25.1,29.85,NNW,342,10.0,10.0,44,0.00,,,0.00,Wunderground v.1.15,2013-02-12 17:12:00,
2013-02-12 12:17:00,46.2,26.5,29.85,NNW,339,5.0,11.0,46,0.00,,,0.00,Wunderground v.1.15,2013-02-12 17:17:00,
2013-02-12 12:22:00,46.1,25.4,29.85,North,351,0.0,11.0,44,0.00,,,0.00,Wunderground v.1.15,2013-02-12 17:22:00,
2013-02-12 12:27:00,46.2,24.9,29.85,North,360,4.0,11.0,43,0.00,,,0.00,Wunderground v.1.15,2013-02-12 17:27:00,
2013-02-12 12:32:00,46.1,24.8,29.84,NW,306,4.0,9.0,43,0.00,,,0.00,Wunderground v.1.15,2013-02-12 17:32:00,
2013-02-12 12:37:00,46.1,25.4,29.84,WNW,285,1.0,14.0,44,0.00,,,0.00,Wunderground v.1.15,2013-02-12 17:37:00,
2013-02-12 12:42:00,46.1,24.8,29.84,WNW,296,3.0,10.0,43,0.00,,,0.00,Wunderground v.1.15,2013-02-12 17:42:00,
2013-02-12 12:47:00,46.2,24.9,29.84,WNW,286,1.0,11.0,43,0.00,,,0.00,Wunderground v.1.15,2013-02-12 17:47:00,
2013-02-12 12:52:00,46.4,25.1,29.84,NW,325,4.0,8.0,43,0.00,,,0.00,Wunderground v.1.15,2013-02-12 17:52:00,
2013-02-12 12:57:00,46.7,27.5,29.84,WNW,290,5.0,18.0,47,0.00,,,0.00,Wunderground v.1.15,2013-02-12 17:57:00,
2013-02-12 13:02:00,46.8,25.5,29.84,WNW,301,3.0,12.0,43,0.00,,,0.00,Wunderground v.1.15,2013-02-12 18:02:00,
2013-02-12 13:07:00,47.0,25.6,29.84,WNW,284,3.0,12.0,43,0.00,,,0.00,Wunderground v.1.15,2013-02-12 18:07:00,
2013-02-12 13:12:00,47.0,25.6,29.84,WNW,286,0.0,13.0,43,0.00,,,0.00,Wunderground v.1.15,2013-02-12 18:12:00,
2013-02-12 13:17:00,46.8,24.9,29.83,NNE,22,1.0,13.0,42,0.00,,,0.00,Wunderground v.1.15,2013-02-12 18:17:00,
2013-02-12 13:22:00,47.0,25.6,29.83,WNW,288,5.0,12.0,43,0.00,,,0.00,Wunderground v.1.15,2013-02-12 18:22:00,
2013-02-12 13:27:00,47.1,25.7,29.83,North,360,0.0,12.0,43,0.00,,,0.00,Wunderground v.1.15,2013-02-12 18:27:00,
2013-02-12 13:32:00,47.1,25.7,29.83,WNW,302,6.0,8.0,43,0.00,,,0.00,Wunderground v.1.15,2013-02-12 18:32:00,
2013-02-12 13:37:00,47.0,25.6,29.83,North,360,2.0,12.0,43,0.00,,,0.00,Wunderground v.1.15,2013-02-12 18:37:00,
2013-02-12 13:42:00,46.7,24.8,29.83,West,280,2.0,12.0,42,0.00,,,0.00,Wunderground v.1.15,2013-02-12 18:42:00,
2013-02-12 13:48:00,46.4,24.5,29.84,NW,319,7.0,12.0,42,0.00,,,0.00,Wunderground v.1.15,2013-02-12 18:48:00,
2013-02-12 13:54:00,46.5,24.6,29.84,NNW,327,5.0,15.0,42,0.00,,,0.00,Wunderground v.1.15,2013-02-12 18:54:00,
2013-02-12 13:59:00,46.2,24.3,29.83,WNW,284,2.0,15.0,42,0.00,,,0.00,Wunderground v.1.15,2013-02-12 18:59:00,
2013-02-12 14:04:00,46.2,24.3,29.83,WNW,287,6.0,15.0,42,0.00,,,0.00,Wunderground v.1.15,2013-02-12 19:04:00,
2013-02-12 14:09:00,46.0,24.2,29.83,NNW,344,4.0,15.0,42,0.00,,,0.00,Wunderground v.1.15,2013-02-12 19:09:00,
2013-02-12 14:15:00,46.1,24.8,29.83,NW,304,5.0,11.0,43,0.00,,,0.00,Wunderground v.1.15,2013-02-12 19:15:00,
2013-02-12 14:20:00,46.1,24.3,29.83,West,262,5.0,12.0,42,0.00,,,0.00,Wunderground v.1.15,2013-02-12 19:20:00,
2013-02-12 14:25:00,46.1,24.3,29.83,NW,319,2.0,12.0,42,0.00,,,0.00,Wunderground v.1.15,2013-02-12 19:25:00,
2013-02-12 14:30:00,46.2,24.3,29.82,NNE,13,1.0,12.0,42,0.00,,,0.00,Wunderground v.1.15,2013-02-12 19:30:00,
2013-02-12 14:35:00,46.1,24.8,29.82,NNW,336,4.0,11.0,43,0.00,,,0.00,Wunderground v.1.15,2013-02-12 19:35:00,
2013-02-12 14:40:00,46.1,24.8,29.82,WNW,284,8.0,11.0,43,0.00,,,0.00,Wunderground v.1.15,2013-02-12 19:40:00,
2013-02-12 14:45:00,46.2,24.3,29.82,NW,314,5.0,7.0,42,0.00,,,0.00,Wunderground v.1.15,2013-02-12 19:45:00,
2013-02-12 14:50:00,46.1,24.3,29.82,West,281,4.0,4.0,42,0.00,,,0.00,Wunderground v.1.15,2013-02-12 19:50:00,
2013-02-12 14:55:00,45.7,23.9,29.82,NW,309,1.0,11.0,42,0.00,,,0.00,Wunderground v.1.15,2013-02-12 19:55:00,
2013-02-12 15:00:00,45.5,24.3,29.81,North,360,10.0,10.0,43,0.00,,,0.00,Wunderground v.1.15,2013-02-12 20:00:00,
2013-02-12 15:05:00,45.7,24.5,29.81,North,360,0.0,10.0,43,0.00,,,0.00,Wunderground v.1.15,2013-02-12 20:05:00,
2013-02-12 15:10:00,45.7,24.5,29.81,WNW,294,1.0,3.0,43,0.00,,,0.00,Wunderground v.1.15,2013-02-12 20:10:00,
2013-02-12 15:15:00,45.5,24.3,29.82,WNW,290,0.0,12.0,43,0.00,,,0.00,Wunderground v.1.15,2013-02-12 20:15:00,
2013-02-12 15:20:00,45.1,23.9,29.82,WNW,293,4.0,5.0,43,0.00,,,0.00,Wunderground v.1.15,2013-02-12 20:20:00,
2013-02-12 15:25:00,44.9,23.7,29.82,West,273,0.0,8.0,43,0.00,,,0.00,Wunderground v.1.15,2013-02-12 20:25:00,
2013-02-12 15:30:00,44.9,24.3,29.81,NW,310,6.0,7.0,44,0.00,,,0.00,Wunderground v.1.15,2013-02-12 20:30:00,
2013-02-12 15:35:00,45.1,23.9,29.81,West,273,11.0,11.0,43,0.00,,,0.00,Wunderground v.1.15,2013-02-12 20:35:00,
2013-02-12 15:40:00,45.1,23.9,29.81,NW,321,0.0,4.0,43,0.00,,,0.00,Wunderground v.1.15,2013-02-12 20:40:00,
2013-02-12 15:45:00,45.1,23.9,29.78,NNW,332,7.0,8.0,43,0.00,,,0.00,Wunderground v.1.15,2013-02-12 20:45:00,
2013-02-12 15:50:00,44.6,23.5,29.78,NW,307,5.0,7.0,43,0.00,,,0.00,Wunderground v.1.15,2013-02-12 20:50:00,
2013-02-12 15:55:00,44.1,23.0,29.78,NNW,333,1.0,9.0,43,0.00,,,0.00,Wunderground v.1.15,2013-02-12 20:55:00,
2013-02-12 16:00:00,43.8,23.3,29.76,North,350,5.0,5.0,44,0.00,,,0.00,Wunderground v.1.15,2013-02-12 21:00:00,
2013-02-12 16:05:00,43.5,23.0,29.76,NW,317,0.0,11.0,44,0.00,,,0.00,Wunderground v.1.15,2013-02-12 21:05:00,
2013-02-12 16:10:00,43.3,23.4,29.76,NW,321,0.0,3.0,45,0.00,,,0.00,Wunderground v.1.15,2013-02-12 21:10:00,
2013-02-12 16:15:00,43.2,23.3,29.77,NNW,327,0.0,6.0,45,0.00,,,0.00,Wunderground v.1.15,2013-02-12 21:15:00,
2013-02-12 16:20:00,43.1,23.2,29.77,North,351,5.0,5.0,45,0.00,,,0.00,Wunderground v.1.15,2013-02-12 21:20:00,
2013-02-12 16:25:00,43.1,23.7,29.77,NNW,339,5.0,7.0,46,0.00,,,0.00,Wunderground v.1.15,2013-02-12 21:25:00,
2013-02-12 16:30:00,42.9,23.5,29.80,NNE,22,6.0,7.0,46,0.00,,,0.00,Wunderground v.1.15,2013-02-12 21:30:00,
2013-02-12 16:35:00,42.8,23.9,29.80,WNW,285,2.0,9.0,47,0.00,,,0.00,Wunderground v.1.15,2013-02-12 21:35:00,
2013-02-12 16:40:00,42.6,23.8,29.80,WNW,288,1.0,3.0,47,0.00,,,0.00,Wunderground v.1.15,2013-02-12 21:40:00,
2013-02-12 16:46:00,42.5,23.7,29.83,NW,311,2.0,7.0,47,0.00,,,0.00,Wunderground v.1.15,2013-02-12 21:46:00,
2013-02-12 16:51:00,42.3,23.5,29.83,NW,308,2.0,5.0,47,0.00,,,0.00,Wunderground v.1.15,2013-02-12 21:51:00,
2013-02-12 16:56:00,42.3,23.5,29.83,West,271,0.0,7.0,47,0.00,,,0.00,Wunderground v.1.15,2013-02-12 21:56:00,
2013-02-12 17:01:00,42.2,23.4,29.84,WNW,299,3.0,5.0,47,0.00,,,0.00,Wunderground v.1.15,2013-02-12 22:01:00,
2013-02-12 17:06:00,42.1,23.8,29.84,WNW,282,3.0,5.0,48,0.00,,,0.00,Wunderground v.1.15,2013-02-12 22:06:00,
2013-02-12 17:11:00,41.9,23.6,29.84,NNW,341,5.0,5.0,48,0.00,,,0.00,Wunderground v.1.15,2013-02-12 22:11:00,
2013-02-12 17:16:00,41.6,23.3,29.87,North,355,3.0,6.0,48,0.00,,,0.00,Wunderground v.1.15,2013-02-12 22:16:00,
2013-02-12 17:21:00,41.5,23.7,29.87,WNW,290,5.0,7.0,49,0.00,,,0.00,Wunderground v.1.15,2013-02-12 22:21:00,
2013-02-12 17:26:00,41.3,23.6,29.87,WNW,284,5.0,9.0,49,0.00,,,0.00,Wunderground v.1.15,2013-02-12 22:26:00,
2013-02-12 17:31:00,41.2,23.5,29.88,WNW,301,6.0,6.0,49,0.00,,,0.00,Wunderground v.1.15,2013-02-12 22:31:00,
2013-02-12 17:36:00,41.1,23.4,29.88,NW,319,0.0,9.0,49,0.00,,,0.00,Wunderground v.1.15,2013-02-12 22:36:00,
2013-02-12 17:41:00,40.8,23.1,29.88,NW,305,1.0,4.0,49,0.00,,,0.00,Wunderground v.1.15,2013-02-12 22:41:00,
2013-02-12 17:46:00,40.6,23.4,29.88,West,278,1.0,5.0,50,0.00,,,0.00,Wunderground v.1.15,2013-02-12 22:46:00,
2013-02-12 17:51:00,40.5,23.3,29.88,West,278,0.0,2.0,50,0.00,,,0.00,Wunderground v.1.15,2013-02-12 22:51:00,
2013-02-12 17:56:00,40.2,23.5,29.88,WNW,290,1.0,6.0,51,0.00,,,0.00,Wunderground v.1.15,2013-02-12 22:56:00,
2013-02-12 18:01:00,40.1,23.4,29.89,NNW,330,1.0,2.0,51,0.00,,,0.00,Wunderground v.1.15,2013-02-12 23:01:00,
2013-02-12 18:06:00,39.9,23.2,29.89,WNW,300,1.0,5.0,51,0.00,,,0.00,Wunderground v.1.15,2013-02-12 23:06:00,
2013-02-12 18:11:00,39.6,22.9,29.89,NW,318,5.0,5.0,51,0.00,,,0.00,Wunderground v.1.15,2013-02-12 23:11:00,
2013-02-12 18:16:00,39.5,22.8,29.88,NNW,344,0.0,6.0,51,0.00,,,0.00,Wunderground v.1.15,2013-02-12 23:16:00,
2013-02-12 18:21:00,39.3,23.1,29.88,NNW,339,0.0,5.0,52,0.00,,,0.00,Wunderground v.1.15,2013-02-12 23:21:00,
2013-02-12 18:26:00,39.3,23.1,29.88,NNW,336,8.0,8.0,52,0.00,,,0.00,Wunderground v.1.15,2013-02-12 23:26:00,
2013-02-12 18:31:00,39.2,23.0,29.89,NW,307,0.0,6.0,52,0.00,,,0.00,Wunderground v.1.15,2013-02-12 23:31:00,
2013-02-12 18:36:00,39.1,22.9,29.89,NW,313,0.0,6.0,52,0.00,,,0.00,Wunderground v.1.15,2013-02-12 23:36:00,
2013-02-12 18:41:00,38.9,22.8,29.89,NW,317,1.0,2.0,52,0.00,,,0.00,Wunderground v.1.15,2013-02-12 23:41:00,
2013-02-12 18:46:00,38.8,23.1,29.90,NW,318,2.0,2.0,53,0.00,,,0.00,Wunderground v.1.15,2013-02-12 23:46:00,
2013-02-12 18:51:00,38.5,22.8,29.90,NW,317,0.0,3.0,53,0.00,,,0.00,Wunderground v.1.15,2013-02-12 23:51:00,
2013-02-12 18:56:00,38.3,22.6,29.90,NW,317,0.0,3.0,53,0.00,,,0.00,Wunderground v.1.15,2013-02-12 23:56:00,
2013-02-12 19:01:00,38.2,23.0,29.90,NW,309,0.0,3.0,54,0.00,,,0.00,Wunderground v.1.15,2013-02-13 00:01:00,
2013-02-12 19:06:00,37.9,22.7,29.90,NW,309,0.0,3.0,54,0.00,,,0.00,Wunderground v.1.15,2013-02-13 00:06:00,
2013-02-12 19:12:00,37.9,23.2,29.90,NW,309,1.0,2.0,55,0.00,,,0.00,Wunderground v.1.15,2013-02-13 00:12:00,
2013-02-12 19:17:00,37.8,23.1,29.89,NW,309,0.0,2.0,55,0.00,,,0.00,Wunderground v.1.15,2013-02-13 00:17:00,
2013-02-12 19:22:00,37.6,22.9,29.89,NW,309,2.0,4.0,55,0.00,,,0.00,Wunderground v.1.15,2013-02-13 00:22:00,
2013-02-12 19:27:00,37.5,22.8,29.89,NW,309,1.0,4.0,55,0.00,,,0.00,Wunderground v.1.15,2013-02-13 00:27:00,
2013-02-12 19:32:00,37.5,22.8,29.89,NW,309,0.0,3.0,55,0.00,,,0.00,Wunderground v.1.15,2013-02-13 00:32:00,
2013-02-12 19:37:00,37.3,22.6,29.89,NW,309,1.0,3.0,55,0.00,,,0.00,Wunderground v.1.15,2013-02-13 00:37:00,
2013-02-12 19:42:00,37.2,22.9,29.89,NW,309,0.0,3.0,56,0.00,,,0.00,Wunderground v.1.15,2013-02-13 00:42:00,
2013-02-12 19:47:00,37.0,22.7,29.89,NW,309,2.0,5.0,56,0.00,,,0.00,Wunderground v.1.15,2013-02-13 00:47:00,
2013-02-12 19:52:00,36.9,23.1,29.89,NW,309,0.0,2.0,57,0.00,,,0.00,Wunderground v.1.15,2013-02-13 00:52:00,
2013-02-12 19:57:00,36.9,23.1,29.89,North,355,0.0,5.0,57,0.00,,,0.00,Wunderground v.1.15,2013-02-13 00:57:00,
2013-02-12 20:02:00,36.8,23.0,29.88,North,355,0.0,5.0,57,0.00,,,0.00,Wunderground v.1.15,2013-02-13 01:02:00,
2013-02-12 20:07:00,36.8,23.0,29.88,NW,319,1.0,6.0,57,0.00,,,0.00,Wunderground v.1.15,2013-02-13 01:07:00,
2013-02-12 20:12:00,36.6,22.8,29.88,NW,319,0.0,1.0,57,0.00,,,0.00,Wunderground v.1.15,2013-02-13 01:12:00,
2013-02-12 20:17:00,36.5,23.1,29.87,NW,319,0.0,2.0,58,0.00,,,0.00,Wunderground v.1.15,2013-02-13 01:17:00,
2013-02-12 20:26:00,36.2,22.8,29.87,NW,319,0.0,0.0,58,0.00,,,0.00,Wunderground v.1.15,2013-02-13 01:26:00,
2013-02-12 20:36:00,35.9,23.0,29.87,NW,319,0.0,0.0,59,0.00,,,0.00,Wunderground v.1.15,2013-02-13 01:36:00,
2013-02-12 20:41:00,35.8,22.9,29.87,NW,325,0.0,1.0,59,0.00,,,0.00,Wunderground v.1.15,2013-02-13 01:41:00,
2013-02-12 20:46:00,35.6,22.7,29.86,NW,325,0.0,1.0,59,0.00,,,0.00,Wunderground v.1.15,2013-02-13 01:46:00,
2013-02-12 20:51:00,35.5,23.0,29.86,NW,325,0.0,0.0,60,0.00,,,0.00,Wunderground v.1.15,2013-02-13 01:51:00,
2013-02-12 20:56:00,35.5,23.0,29.86,NW,325,1.0,1.0,60,0.00,,,0.00,Wunderground v.1.15,2013-02-13 01:56:00,
2013-02-12 21:01:00,35.5,23.0,29.85,NW,325,1.0,2.0,60,0.00,,,0.00,Wunderground v.1.15,2013-02-13 02:01:00,
2013-02-12 21:06:00,35.5,23.0,29.85,NW,325,1.0,2.0,60,0.00,,,0.00,Wunderground v.1.15,2013-02-13 02:06:00,
2013-02-12 21:16:00,35.3,22.8,29.85,NW,325,0.0,0.0,60,0.00,,,0.00,Wunderground v.1.15,2013-02-13 02:16:00,
2013-02-12 21:21:00,35.2,22.7,29.85,West,281,0.0,1.0,60,0.00,,,0.00,Wunderground v.1.15,2013-02-13 02:21:00,
2013-02-12 21:26:00,34.9,22.4,29.85,West,281,0.0,1.0,60,0.00,,,0.00,Wunderground v.1.15,2013-02-13 02:26:00,
2013-02-12 21:31:00,34.7,22.2,29.84,West,281,0.0,0.0,60,0.00,,,0.00,Wunderground v.1.15,2013-02-13 02:31:00,
2013-02-12 21:36:00,34.4,21.9,29.84,West,281,0.0,0.0,60,0.00,,,0.00,Wunderground v.1.15,2013-02-13 02:36:00,
2013-02-12 21:41:00,34.3,22.2,29.84,West,281,0.0,1.0,61,0.00,,,0.00,Wunderground v.1.15,2013-02-13 02:41:00,
2013-02-12 21:46:00,34.0,22.0,29.85,West,281,0.0,1.0,61,0.00,,,0.00,Wunderground v.1.15,2013-02-13 02:46:00,
2013-02-12 21:51:00,33.7,21.7,29.85,West,281,0.0,0.0,61,0.00,,,0.00,Wunderground v.1.15,2013-02-13 02:51:00,
2013-02-12 21:56:00,33.4,21.8,29.85,West,281,0.0,0.0,62,0.00,,,0.00,Wunderground v.1.15,2013-02-13 02:56:00,
2013-02-12 22:06:00,32.9,21.3,29.85,West,281,0.0,0.0,62,0.00,,,0.00,Wunderground v.1.15,2013-02-13 03:06:00,
2013-02-12 22:11:00,32.7,21.1,29.85,West,281,0.0,0.0,62,0.00,,,0.00,Wunderground v.1.15,2013-02-13 03:11:00,
2013-02-12 22:16:00,32.4,21.2,29.86,West,281,0.0,0.0,63,0.00,,,0.00,Wunderground v.1.15,2013-02-13 03:16:00,
2013-02-12 22:21:00,32.1,20.9,29.86,West,281,0.0,0.0,63,0.00,,,0.00,Wunderground v.1.15,2013-02-13 03:21:00,
2013-02-12 22:26:00,31.9,21.1,29.86,West,281,0.0,0.0,64,0.00,,,0.00,Wunderground v.1.15,2013-02-13 03:26:00,
2013-02-12 22:31:00,31.6,20.8,29.86,West,281,0.0,0.0,64,0.00,,,0.00,Wunderground v.1.15,2013-02-13 03:31:00,
2013-02-12 22:36:00,31.5,21.1,29.86,West,281,0.0,0.0,65,0.00,,,0.00,Wunderground v.1.15,2013-02-13 03:36:00,
2013-02-12 22:46:00,31.2,20.8,29.86,West,281,0.0,0.0,65,0.00,,,0.00,Wunderground v.1.15,2013-02-13 03:46:00,
2013-02-12 22:51:00,31.0,21.0,29.86,West,281,0.0,0.0,66,0.00,,,0.00,Wunderground v.1.15,2013-02-13 03:51:00,
2013-02-12 22:56:00,30.9,20.9,29.86,West,281,0.0,0.0,66,0.00,,,0.00,Wunderground v.1.15,2013-02-13 03:56:00,
2013-02-12 23:01:00,30.7,21.0,29.88,West,281,0.0,0.0,67,0.00,,,0.00,Wunderground v.1.15,2013-02-13 04:01:00,
2013-02-12 23:06:00,30.6,20.9,29.88,West,281,0.0,0.0,67,0.00,,,0.00,Wunderground v.1.15,2013-02-13 04:06:00,
2013-02-12 23:11:00,30.4,21.1,29.88,West,281,0.0,0.0,68,0.00,,,0.00,Wunderground v.1.15,2013-02-13 04:11:00,
2013-02-12 23:21:00,30.1,20.8,29.87,West,281,0.0,0.0,68,0.00,,,0.00,Wunderground v.1.15,2013-02-13 04:21:00,
2013-02-12 23:26:00,30.0,21.1,29.87,West,281,0.0,0.0,69,0.00,,,0.00,Wunderground v.1.15,2013-02-13 04:26:00,
2013-02-12 23:31:00,30.0,21.1,29.87,West,281,0.0,0.0,69,0.00,,,0.00,Wunderground v.1.15,2013-02-13 04:31:00,
2013-02-12 23:41:00,29.8,21.2,29.87,West,281,0.0,0.0,70,0.00,,,0.00,Wunderground v.1.15,2013-02-13 04:41:00,
2013-02-12 23:46:00,29.7,21.1,29.88,West,281,0.0,0.0,70,0.00,,,0.00,Wunderground v.1.15,2013-02-13 04:46:00,
2013-02-12 23:51:00,29.7,21.4,29.88,West,281,0.0,0.0,71,0.00,,,0.00,Wunderground v.1.15,2013-02-13 04:51:00,